Weather in Berezovka

Russia / Republic of Tatarstan     55°54′04″N   49°15′09″E
temp.,
°C
wind,
m/s
gust,
m/s
humid.,
%
clouds,
%
prec.,
mm/h
press.,
hPa
HPBL,
m
17 may, tue
tue1700:00+9w3683100 0.0 1000195
03:00+6w369430 0.1 1000143
06:00+8w468754 0.0 1000302
09:00+12w346734 0.0 10001055
12:00+13w546069 0.1 9991186
15:00+13w4561100 0.2 9991156
18:00+10sw5780100 0.2 1000356
21:00+8sw699296 2.1 1001413
18 may, wed
wed1800:00+7sw3796100 3.8 1000399
03:00+7wsw3598100 9.1 1000242
06:00+8wsw4693100 2.1 1000339
09:00+8nnw4794100 3.1 1000606
12:00+7n599095 2.1 1002800
15:00+10n5777100 2.4 1003965
18:00+9nnw4776100 0.3 1005779
21:00+7nw3786100 0.4 1007216
19 may, thu
thu1900:00+6wnw3587100 0.1 1007137
03:00+4nw3593100 0.1 1007112
06:00+4nnw4490100 0.1 1008505
09:00+3wnw3596100 1.2 1009352
12:00+7w467398 0.3 10091127
15:00+10wnw455699 0.9 10091716
18:00+8nw3475100 0.9 1009383
21:00+6wnw1287100 1.8 101082
20 may, fri
fri2000:00+3wnw349382 0.1 100978
03:00+2nw3692100 0.1 1010135
06:00+3nnw4696100 0.3 1010464
09:00+3nw4898100 1.9 1011412
12:00+7nnw6872100 0.8 1011958
15:00+9nnw81064100 1.9 10101435
18:00+7n6107697 0.5 10121024
21:00+4nw369098 0.6 1012124
21 may, sat
sat2100:00+2wnw35905 0.0 101287
03:00+1nw378759 0.0 1011120
06:00+4nw467889 0.0 1011233
09:00+8nw57597 0.1 10101459
12:00+10nnw6744100 0.1 10092256
15:00+11nnw564389 0.1 10092038
18:00+9n355510 0.0 1009360
21:00+4ne23781 0.0 100934